1519002000.22,30582,9.56,73226.3,-15.95,-45.47,-45.67,0,*66
1519002001.43,30583,9.56,73228.5,-15.95,-45.87,-45.95,0,*66
1519002002.67,30584,9.56,73224.5,-15.93,-45.87,-45.95,0,*67
1519002003.9,30585,9.56,73230.3,-15.95,-45.73,-45.87,0,*68
1519002005.12,30586,9.56,73228.8,-15.95,-45.53,-45.67,0,*67
1519002006.36,30587,9.56,73230.5,-15.93,-45.33,-45.67,0,*66
1519002007.6,30588,9.56,73228.0,-15.95,-45.47,-45.53,0,*6B
1519002008.83,30589,9.56,73228.0,-15.95,-45.33,-45.27,0,*6A
1519002010.05,30590,9.56,73228.5,-15.95,-45.33,-45.53,0,*61
1519002011.29,30591,9.56,73228.0,-15.95,-45.53,-45.47,0,*63
1519002012.56,30592,9.56,73230.5,-15.93,-45.47,-45.67,0,*61
1519002013.77,30593,9.56,73226.5,-15.95,-45.33,-45.53,0,*62
1519002015.01,30594,9.56,73224.5,-15.95,-45.67,-45.73,0,*66
1519002016.25,30595,9.56,73228.5,-15.95,-45.47,-45.53,0,*67
1519002017.52,30596,9.56,73226.8,-15.93,-45.67,-45.73,0,*62
1519002018.73,30597,9.56,73230.5,-15.95,-45.67,-45.87,0,*6E
1519002019.97,30598,9.56,73228.3,-15.95,-45.73,-45.95,0,*67
1519002021.18,30599,9.56,73230.3,-15.95,-45.95,-45.95,0,*6E
1519002022.43,30600,9.56,73228.0,-15.95,-45.95,-46.15,0,*66
1519002023.69,30601,9.56,73226.3,-15.95,-45.73,-46.07,0,*6C
1519002024.91,30602,9.56,73230.8,-15.95,-45.67,-45.87,0,*61
1519002026.12,30603,9.56,73230.8,-15.95,-45.87,-45.87,0,*6E
1519002027.34,30604,9.56,73224.0,-15.95,-45.95,-45.95,0,*69
1519002028.55,30605,9.56,73228.3,-15.95,-45.87,-45.95,0,*6B
1519002029.79,30606,9.56,73230.8,-15.95,-45.73,-45.95,0,*63
1519002031.03,30607,9.56,73230.3,-15.95,-45.47,-45.53,0,*6F
1519002032.25,30608,9.56,73230.5,-15.95,-45.53,-45.67,0,*62
1519002033.47,30609,9.56,73228.5,-15.95,-45.53,-45.67,0,*63
1519002034.7,30610,9.56,73228.5,-15.95,-45.67,-45.73,0,*69
1519002035.92,30611,9.56,73228.3,-15.95,-45.67,-45.87,0,*63
1519002037.16,30612,9.56,73228.5,-15.95,-45.47,-45.53,0,*6B
1519002038.4,30613,9.56,73228.8,-15.95,-45.67,-45.73,0,*6A
1519002039.61,30614,9.56,73228.0,-15.95,-45.87,-45.95,0,*6B
1519002040.84,30615,9.56,73230.3,-15.95,-45.53,-45.53,0,*69
1519002042.09,30616,9.56,73228.8,-15.97,-45.21,-45.21,0,*68
1519002043.36,30617,9.56,73232.0,-15.95,-44.93,-44.93,0,*6B
1519002044.57,30618,9.56,73228.0,-15.95,-45.33,-45.53,0,*62
1519002045.86,30619,9.56,73228.8,-15.93,-44.87,-44.93,0,*66
1519002047.14,30620,9.56,73224.5,-15.93,-44.87,-44.93,0,*6C
1519002048.36,30621,9.56,73228.0,-15.91,-44.87,-44.99,0,*65
1519002049.64,30622,9.56,73230.3,-15.93,-44.87,-44.93,0,*6E
1519002050.87,30623,9.56,73226.0,-15.93,-45.33,-45.13,0,*68
1519002052.12,30624,9.56,73230.8,-15.91,-45.07,-45.21,0,*6B
1519002053.34,30625,9.56,73226.0,-15.91,-45.21,-45.41,0,*68
1519002054.55,30626,9.56,73230.5,-15.91,-45.41,-45.67,0,*69
1519002055.79,30627,9.56,73230.0,-15.89,-45.61,-45.87,0,*6D
1519002057.05,30628,9.56,73224.3,-15.91,-45.81,-45.81,0,*63
1519002058.31,30629,9.56,73226.0,-15.89,-45.47,-45.61,0,*6F
1519002059.55,30630,9.56,73228.5,-15.91,-45.47,-45.61,0,*6E
1519002060.82,30631,9.56,73226.8,-15.89,-45.47,-45.61,0,*66
1519002062.05,30632,9.56,73228.5,-15.91,-45.81,-45.87,0,*6E
1519002063.28,30633,9.56,73226.5,-15.91,-45.81,-45.67,0,*61
1519002064.53,30634,9.56,73230.5,-15.91,-45.07,-45.21,0,*6A
1519002065.78,30635,9.56,73228.0,-15.91,-45.27,-45.41,0,*6F
1519002067.02,30636,9.56,73228.0,-15.91,-45.47,-45.61,0,*68
1519002068.27,30637,9.56,73224.0,-15.91,-45.47,-45.61,0,*69
1519002069.5,30638,9.56,73228.3,-15.89,-45.67,-45.67,0,*6B
1519002070.76,30639,9.56,73228.8,-15.89,-45.67,-45.81,0,*62
1519002072.0,30640,9.56,73230.3,-15.91,-45.81,-45.87,0,*6B
1519002073.23,30641,9.56,73230.8,-15.91,-45.81,-45.87,0,*6A
1519002074.45,30642,9.56,73228.5,-15.91,-45.61,-45.87,0,*67
1519002075.67,30643,9.56,73228.3,-15.91,-46.01,-45.87,0,*63
1519002076.93,30644,9.56,73228.0,-15.89,-45.81,-46.01,0,*6B
1519002078.14,30645,9.56,73230.8,-15.91,-45.67,-45.67,0,*68
1519002079.39,30646,9.56,73226.5,-15.91,-45.67,-45.81,0,*63
1519002080.63,30647,9.56,73224.0,-15.91,-45.81,-46.01,0,*61
1519002081.86,30648,9.56,73230.0,-15.91,-46.01,-46.01,0,*65
1519002083.1,30649,9.56,73226.3,-15.91,-45.61,-45.81,0,*6A
1519002084.34,30650,9.56,73228.5,-15.93,-45.87,-45.95,0,*6D
1519002085.58,30651,9.56,73230.8,-15.91,-45.61,-45.81,0,*63
1519002086.82,30652,9.56,73228.0,-15.93,-45.67,-45.87,0,*62
1519002088.09,30653,9.56,73224.8,-15.93,-45.53,-45.73,0,*6F
1519002089.35,30654,9.56,73230.5,-15.93,-45.73,-45.87,0,*61
1519002090.62,30655,9.56,73228.3,-15.93,-45.53,-45.73,0,*69
1519002091.86,30656,9.56,73226.8,-15.93,-45.87,-45.95,0,*6B
1519002093.17,30657,9.56,73228.3,-15.93,-46.15,-46.07,0,*6A
1519002094.44,30658,9.56,73228.5,-15.93,-45.87,-46.07,0,*6D
1519002095.68,30659,9.56,73228.8,-15.93,-45.95,-45.95,0,*67
1519002096.92,30660,9.56,73230.0,-15.93,-45.87,-45.87,0,*6D
1519002098.18,30661,9.56,73228.0,-15.91,-45.47,-45.81,0,*64
1519002099.45,30662,9.56,73230.0,-15.89,-45.61,-45.81,0,*6A
1519002100.69,30663,9.56,73230.5,-15.93,-45.87,-45.95,0,*6D
1519002101.96,30664,9.56,73230.0,-15.95,-46.07,-46.07,0,*6F
1519002103.22,30665,9.56,73230.0,-15.93,-45.73,-45.95,0,*60
1519002104.49,30666,9.56,73228.8,-15.95,-45.47,-45.47,0,*6D
1519002105.72,30667,9.56,73226.0,-15.95,-45.73,-45.87,0,*67
1519002106.97,30668,9.56,73228.0,-15.95,-45.95,-46.07,0,*6B
1519002108.24,30669,9.56,73228.3,-15.95,-46.15,-46.15,0,*62
1519002109.49,30670,9.56,73228.3,-15.93,-45.95,-45.95,0,*6C
1519002110.72,30671,9.56,73226.8,-15.95,-45.47,-45.67,0,*69
1519002111.96,30672,9.56,73228.8,-15.93,-45.87,-45.95,0,*6D
1519002113.22,30673,9.56,73228.3,-15.93,-45.73,-45.95,0,*67
1519002114.47,30674,9.56,73226.3,-15.93,-45.87,-45.95,0,*6B
1519002115.77,30675,9.56,73230.8,-15.93,-46.15,-46.15,0,*69
1519002117.01,30676,9.56,73228.0,-15.95,-45.95,-46.15,0,*67
1519002118.29,30677,9.56,73230.8,-15.95,-46.07,-46.07,0,*6D
1519002119.53,30678,9.56,73230.3,-15.95,-45.95,-46.15,0,*69
1519002120.78,30679,9.56,73224.5,-15.95,-45.87,-46.15,0,*6B
1519002122.05,30680,9.56,73230.8,-15.95,-46.07,-46.15,0,*66
1519002123.33,30681,9.56,73230.0,-15.95,-46.07,-46.07,0,*64
1519002124.6,30682,9.56,73226.8,-15.95,-46.07,-46.07,0,*67
1519002125.87,30683,9.56,73230.5,-15.97,-46.15,-46.21,0,*63
1519002127.15,30684,9.56,73230.3,-15.97,-45.73,-45.81,0,*6E
1519002128.44,30685,9.56,73230.3,-15.97,-45.73,-45.81,0,*6F
1519002129.68,30686,9.56,73228.0,-15.97,-46.01,-46.21,0,*63
1519002130.98,30687,9.56,73228.0,-15.97,-46.15,-46.15,0,*60
1519002132.23,30688,9.56,73230.0,-15.97,-45.95,-46.21,0,*63
1519002133.5,30689,9.56,73230.8,-15.97,-46.15,-46.21,0,*69
1519002134.75,30690,9.56,73230.3,-15.99,-46.01,-46.15,0,*6D
1519002136.05,30691,9.56,73228.3,-15.97,-46.15,-46.15,0,*67
1519002137.3,30692,9.56,73230.0,-15.97,-46.01,-46.01,0,*64
1519002138.58,30693,9.56,73228.3,-15.99,-46.15,-46.15,0,*6B
1519002139.88,30694,9.56,73230.0,-15.97,-46.15,-46.15,0,*62
1519002141.15,30695,9.56,73228.8,-15.97,-46.01,-46.15,0,*66
1519002142.43,30696,9.56,73226.0,-15.97,-46.01,-46.15,0,*65
1519002143.65,30697,9.56,73230.0,-15.99,-46.01,-46.01,0,*6F
1519002144.88,30698,9.56,73226.3,-15.99,-45.95,-46.01,0,*6E
1519002146.12,30699,9.56,73230.3,-15.97,-45.95,-46.01,0,*61
1519002147.35,30700,9.56,73228.5,-15.99,-46.01,-46.01,0,*60
1519002148.6,30701,9.56,73228.0,-15.99,-46.01,-46.15,0,*64
1519002149.88,30702,9.56,73224.3,-15.99,-46.15,-46.15,0,*62
1519002151.13,30703,9.56,73224.5,-15.99,-46.01,-46.15,0,*66
1519002152.35,30704,9.56,73228.5,-15.99,-46.21,-46.21,0,*64
1519002153.57,30705,9.56,73226.8,-15.99,-46.01,-46.01,0,*65
1519002154.81,30706,9.56,73230.3,-15.99,-45.73,-45.95,0,*6E
1519002156.1,30707,9.56,73226.0,-16.01,-45.81,-46.07,0,*68
1519002157.34,30708,9.56,73226.3,-16.05,-45.67,-46.01,0,*6D
1519002158.64,30709,9.56,73226.8,-16.01,-46.07,-46.27,0,*69
1519002159.94,30710,9.56,73224.5,-16.01,-46.27,-46.27,0,*63
1519002161.2,30711,9.56,73228.3,-16.01,-46.07,-46.21,0,*66
1519002162.44,30712,9.56,73228.0,-16.01,-45.67,-45.67,0,*61
1519002163.7,30713,9.56,73230.5,-16.01,-45.81,-45.87,0,*66
1519002164.94,30714,9.56,73230.5,-16.01,-45.87,-46.01,0,*6A
1519002166.23,30715,9.56,73226.5,-16.05,-45.81,-46.07,0,*6F
1519002167.5,30716,9.56,73228.3,-16.05,-46.01,-46.07,0,*67
1519002168.76,30717,9.56,73224.8,-16.01,-45.81,-45.87,0,*62
1519002170.03,30718,9.56,73226.3,-16.01,-45.81,-46.01,0,*60
1519002171.26,30719,9.56,73226.5,-16.01,-45.87,-45.87,0,*6A
1519002172.53,30720,9.56,73224.3,-16.05,-45.87,-46.07,0,*6F
1519002173.8,30721,9.56,73228.8,-16.01,-46.01,-46.07,0,*67
1519002175.04,30722,9.56,73224.8,-16.05,-46.01,-46.21,0,*64
1519002176.31,30723,9.56,73230.3,-16.01,-46.07,-46.21,0,*67
1519002177.58,30724,9.56,73226.3,-16.05,-45.81,-46.01,0,*6B
1519002178.85,30725,9.56,73226.3,-16.05,-46.01,-46.07,0,*67
1519002180.14,30726,9.56,73228.0,-16.05,-46.07,-46.07,0,*62
1519002181.4,30727,9.56,73226.8,-16.05,-46.07,-46.21,0,*67
1519002182.64,30728,9.56,73228.8,-16.05,-45.67,-45.87,0,*62
1519002183.9,30729,9.56,73226.0,-16.05,-45.81,-46.01,0,*66
1519002185.2,30730,9.56,73226.8,-16.01,-46.07,-46.07,0,*61
1519002186.47,30731,9.56,73224.3,-16.05,-46.07,-46.21,0,*60
1519002187.74,30732,9.56,73224.5,-16.07,-46.15,-46.27,0,*64
1519002189.04,30733,9.56,73228.3,-16.01,-46.07,-46.07,0,*62
1519002190.28,30734,9.56,73228.8,-16.05,-46.21,-46.21,0,*61
1519002191.52,30735,9.56,73230.5,-16.05,-46.01,-46.21,0,*62
1519002192.79,30736,9.56,73228.8,-16.07,-46.07,-46.15,0,*62
1519002194.07,30737,9.56,73230.0,-16.07,-46.15,-46.27,0,*61
1519002195.34,30738,9.56,73228.0,-16.07,-46.27,-46.27,0,*6F
1519002196.64,30739,9.56,73230.0,-16.09,-46.15,-46.15,0,*60
1519002197.94,30740,9.56,73228.3,-16.09,-46.07,-46.07,0,*6E
1519002199.21,30741,9.56,73228.3,-16.07,-46.07,-46.15,0,*62
1519002200.49,30742,9.56,73224.5,-16.07,-46.07,-46.15,0,*61
1519002201.76,30743,9.56,73226.5,-16.07,-46.15,-46.27,0,*62
1519002203.03,30744,9.56,73226.0,-16.07,-46.15,-46.27,0,*65
1519002204.27,30745,9.56,73226.5,-16.09,-45.95,-45.95,0,*6B
1519002205.51,30746,9.56,73224.0,-16.07,-45.73,-45.95,0,*6E
1519002206.81,30747,9.56,73228.3,-16.09,-46.07,-46.15,0,*6A
1519002208.11,30748,9.56,73226.0,-16.09,-46.15,-46.15,0,*66
1519002209.32,30749,9.56,73226.0,-16.07,-45.67,-45.67,0,*69
1519002210.56,30750,9.56,73226.3,-16.09,-45.87,-45.95,0,*6C
1519002211.8,30751,9.56,73226.0,-16.07,-45.95,-46.15,0,*6B
1519002213.05,30752,9.56,73224.0,-16.07,-45.95,-46.07,0,*6B
1519002214.35,30753,9.56,73224.3,-16.09,-46.15,-46.15,0,*6C
1519002215.59,30754,9.56,73224.3,-16.09,-45.67,-45.95,0,*66
1519002216.83,30755,9.56,73224.5,-16.07,-45.95,-46.07,0,*6C
1519002218.07,30756,9.56,73228.0,-16.09,-45.87,-45.95,0,*6A
1519002219.33,30757,9.56,73230.0,-16.09,-45.73,-45.95,0,*60
1519002220.57,30758,9.56,73228.3,-16.09,-45.67,-45.87,0,*69
1519002221.85,30759,9.56,73226.8,-16.09,-45.73,-46.07,0,*66
1519002223.12,30760,9.56,73224.8,-16.09,-45.87,-46.07,0,*67
1519002224.39,30761,9.56,73230.5,-16.09,-45.95,-46.15,0,*66
1519002225.63,30762,9.56,73230.8,-16.09,-45.67,-45.87,0,*60
1519002226.87,30763,9.56,73230.3,-16.09,-45.67,-45.87,0,*61
1519002228.17,30764,9.56,73226.8,-16.09,-46.07,-46.15,0,*6B
1519002229.4,30765,9.56,73228.5,-16.09,-45.87,-45.95,0,*6A
1519002230.64,30766,9.56,73228.8,-16.09,-45.87,-45.95,0,*69
1519002231.91,30767,9.56,73226.5,-16.09,-45.95,-46.07,0,*63
1519002233.15,30768,9.56,73226.0,-16.09,-45.67,-45.95,0,*69
1519002234.4,30769,9.56,73224.5,-16.09,-45.33,-45.47,0,*66
1519002235.65,30770,9.56,73222.8,-16.09,-45.53,-45.87,0,*64
1519002236.92,30771,9.56,73226.5,-16.09,-45.87,-46.07,0,*67
1519002238.2,30772,9.56,73224.5,-16.09,-45.47,-45.47,0,*6F
1519002239.42,30773,9.56,73226.8,-16.07,-45.33,-45.53,0,*66
1519002240.71,30774,9.56,73226.5,-16.09,-45.73,-46.07,0,*69
1519002241.95,30775,9.56,73226.3,-16.07,-45.53,-45.47,0,*63
1519002243.19,30776,9.56,73224.5,-16.07,-45.47,-45.53,0,*60
1519002244.43,30777,9.56,73226.3,-16.07,-45.73,-45.87,0,*6F
1519002245.66,30778,9.56,73226.3,-16.09,-45.87,-45.95,0,*66
1519002246.91,30779,9.56,73222.5,-16.07,-45.95,-46.15,0,*61
1519002248.15,30780,9.56,73224.3,-16.07,-45.53,-45.73,0,*6E
1519002249.36,30781,9.56,73224.3,-16.07,-45.87,-45.87,0,*6D
1519002250.6,30782,9.56,73224.8,-16.07,-45.73,-45.87,0,*65
1519002251.84,30783,9.56,73226.0,-16.09,-45.87,-45.87,0,*61
1519002253.07,30784,9.56,73226.5,-16.07,-45.33,-45.47,0,*6B
1519002254.32,30785,9.56,73224.3,-16.07,-45.95,-46.07,0,*61
1519002255.59,30786,9.56,73226.5,-16.07,-46.07,-46.15,0,*69
1519002256.89,30787,9.56,73226.3,-16.09,-46.07,-46.15,0,*66
1519002258.19,30788,9.56,73226.8,-16.09,-46.07,-46.15,0,*69
1519002259.42,30789,9.56,73224.3,-16.09,-45.67,-45.67,0,*6B
1519002260.64,30790,9.56,73226.3,-16.07,-45.95,-45.95,0,*6D
1519002261.93,30791,9.56,73226.0,-16.09,-46.07,-46.15,0,*61
1519002263.2,30792,9.56,73228.8,-16.09,-45.87,-46.07,0,*6A
1519002264.43,30793,9.56,73224.0,-16.09,-45.67,-45.67,0,*60
1519002265.68,30794,9.56,73228.5,-16.09,-45.53,-45.67,0,*60
1519002266.95,30795,9.56,73226.5,-16.09,-45.95,-46.15,0,*6D
1519002268.19,30796,9.56,73226.3,-16.07,-45.95,-46.15,0,*60
1519002269.43,30797,9.56,73224.0,-16.09,-45.67,-45.67,0,*64
1519002270.67,30798,9.56,73226.8,-16.07,-45.53,-45.73,0,*67
1519002271.92,30799,9.56,73226.3,-16.07,-45.95,-46.07,0,*6C
1519002273.15,30800,9.56,73226.3,-16.07,-45.73,-45.95,0,*63
1519002274.39,30801,9.56,73226.0,-16.09,-45.67,-45.95,0,*69
1519002275.65,30802,9.56,73226.8,-16.09,-45.67,-45.73,0,*62
1519002276.9,30803,9.56,73224.8,-16.07,-45.95,-46.07,0,*60
1519002278.17,30804,9.56,73226.5,-16.09,-45.95,-46.15,0,*6A
1519002279.46,30805,9.56,73224.8,-16.09,-46.07,-46.07,0,*60
1519002280.73,30806,9.56,73226.5,-16.09,-45.95,-46.15,0,*68
1519002282.0,30807,9.56,73226.8,-16.09,-45.87,-46.07,0,*69
1519002283.29,30808,9.56,73226.0,-16.09,-45.73,-46.07,0,*6D
1519002284.56,30809,9.56,73224.0,-16.09,-46.27,-46.35,0,*6F
1519002285.86,30810,9.56,73226.5,-16.09,-46.07,-46.07,0,*64
1519002287.09,30811,9.56,73220.5,-16.09,-45.87,-45.95,0,*66
1519002288.31,30812,9.56,73224.3,-16.11,-45.53,-45.61,0,*6E
1519002289.53,30813,9.56,73220.5,-16.11,-45.41,-45.61,0,*6C
1519002290.76,30814,9.56,73226.5,-16.09,-45.33,-45.33,0,*60
1519002292.03,30815,9.56,73224.0,-16.09,-45.67,-46.07,0,*64
1519002293.3,30816,9.56,73224.5,-16.09,-45.95,-46.07,0,*6A
1519002294.57,30817,9.56,73222.3,-16.09,-45.95,-46.07,0,*6B
1519002295.84,30818,9.56,73224.5,-16.09,-45.95,-46.07,0,*64
1519002297.07,30819,9.56,73220.0,-16.09,-45.87,-45.95,0,*6E
1519002298.31,30820,9.56,73224.3,-16.09,-45.67,-45.87,0,*69
1519002299.58,30821,9.56,73222.8,-16.09,-45.87,-46.15,0,*6E
1519002300.84,30822,9.56,73226.0,-16.09,-45.73,-45.95,0,*6D
1519002302.11,30823,9.56,73224.5,-16.09,-45.87,-46.07,0,*6F
1519002303.34,30824,9.56,73226.0,-16.09,-45.95,-45.95,0,*63
1519002304.61,30825,9.56,73226.8,-16.09,-45.67,-45.73,0,*67
1519002305.87,30826,9.56,73224.8,-16.09,-45.67,-45.73,0,*64
1519002307.13,30827,9.56,73226.8,-16.11,-45.73,-45.81,0,*64
1519002308.39,30828,9.56,73224.3,-16.09,-45.73,-45.87,0,*64
1519002309.65,30829,9.56,73224.5,-16.09,-45.47,-45.53,0,*6B
1519002310.87,30830,9.56,73226.3,-16.11,-45.21,-45.21,0,*6F
1519002312.14,30831,9.56,73222.3,-16.09,-45.47,-45.53,0,*62
1519002313.39,30832,9.56,73226.8,-16.09,-45.53,-45.53,0,*64
1519002314.66,30833,9.56,73224.0,-16.09,-45.13,-45.27,0,*62
1519002315.93,30834,9.56,73226.5,-16.07,-45.27,-45.27,0,*6C
1519002317.19,30835,9.56,73230.3,-16.09,-45.33,-45.47,0,*60
1519002318.41,30836,9.56,73226.8,-16.07,-45.53,-45.67,0,*69
1519002319.67,30837,9.56,73224.0,-16.09,-45.73,-45.87,0,*6A
1519002320.88,30838,9.56,73222.3,-16.07,-45.67,-45.53,0,*67
1519002322.17,30839,9.56,73224.5,-16.09,-45.73,-45.73,0,*6F
1519002323.4,30840,9.56,73226.3,-16.07,-45.67,-45.73,0,*6A
1519002324.64,30841,9.56,73226.5,-16.07,-45.73,-45.95,0,*66
1519002325.91,30842,9.56,73226.8,-16.07,-46.07,-46.15,0,*6E
1519002327.17,30843,9.56,73224.5,-16.09,-45.67,-45.73,0,*67
1519002328.42,30844,9.56,73226.5,-16.07,-45.53,-45.47,0,*6E
1519002329.66,30845,9.56,73224.3,-16.09,-45.53,-45.53,0,*64
1519002330.88,30846,9.56,73220.5,-16.07,-45.87,-45.95,0,*6A
1519002332.11,30847,9.56,73224.0,-16.07,-45.67,-45.73,0,*6D
1519002333.36,30848,9.56,73224.5,-16.07,-45.95,-46.07,0,*6F
1519002334.6,30849,9.56,73222.3,-16.07,-45.95,-46.07,0,*6E
1519002335.82,30850,9.56,73222.8,-16.07,-45.87,-45.95,0,*6D
1519002337.09,30851,9.56,73226.8,-16.09,-45.95,-46.07,0,*69
1519002338.36,30852,9.56,73222.3,-16.09,-45.95,-46.15,0,*69
1519002339.6,30853,9.56,73226.8,-16.09,-45.95,-45.87,0,*60
1519002340.86,30854,9.56,73226.3,-16.09,-45.73,-45.87,0,*6F
1519002342.1,30855,9.56,73226.3,-16.07,-45.95,-46.07,0,*63
1519002343.37,30856,9.56,73226.8,-16.09,-45.95,-46.07,0,*6E
1519002344.67,30857,9.56,73222.0,-16.09,-46.07,-46.15,0,*64
1519002345.93,30858,9.56,73220.3,-16.09,-45.73,-45.87,0,*63
1519002347.16,30859,9.56,73224.8,-16.09,-45.67,-45.67,0,*69
1519002348.4,30860,9.56,73224.5,-16.09,-45.67,-45.87,0,*6D
1519002349.66,30861,9.56,73222.5,-16.07,-45.73,-45.73,0,*6C
1519002350.93,30862,9.56,73224.5,-16.09,-45.95,-46.07,0,*69
1519002352.17,30863,9.56,73220.8,-16.11,-46.21,-46.15,0,*6E
1519002353.39,30864,9.56,73222.8,-16.11,-45.95,-46.01,0,*60
1519002354.66,30865,9.56,73226.5,-16.09,-45.67,-45.73,0,*63
1519002355.89,30866,9.56,73224.8,-16.11,-45.73,-45.61,0,*6F
1519002357.15,30867,9.56,73220.8,-16.09,-45.73,-45.95,0,*6C
1519002358.41,30868,9.56,73222.8,-16.09,-45.73,-45.95,0,*63
1519002359.62,30869,9.56,73220.8,-16.07,-45.87,-45.87,0,*64
1519002360.86,30870,9.56,73224.3,-16.11,-45.87,-46.07,0,*60
1519002362.12,30871,9.56,73222.0,-16.11,-45.73,-45.81,0,*67
1519002363.38,30872,9.56,73224.8,-16.11,-45.73,-45.81,0,*64
1519002364.64,30873,9.56,73226.5,-16.11,-45.73,-45.81,0,*65
1519002365.9,30874,9.56,73226.3,-16.11,-45.73,-45.73,0,*6F
1519002367.15,30875,9.56,73222.8,-16.11,-45.73,-45.81,0,*63
1519002368.42,30876,9.56,73226.3,-16.11,-45.81,-45.81,0,*6D
1519002369.67,30877,9.56,73224.0,-16.11,-45.81,-45.73,0,*61
1519002370.93,30878,9.56,73222.3,-16.09,-45.73,-45.87,0,*61
1519002372.19,30879,9.56,73222.0,-16.09,-45.73,-45.95,0,*63
1519002373.45,30880,9.56,73220.8,-16.11,-45.73,-45.73,0,*64
1519002374.68,30881,9.56,73220.5,-16.11,-45.81,-45.95,0,*60
1519002375.94,30882,9.56,73224.5,-16.11,-45.73,-45.81,0,*6B
1519002377.2,30883,9.56,73224.5,-16.11,-45.81,-45.81,0,*67
1519002378.42,30884,9.56,73222.8,-16.11,-45.95,-46.01,0,*6E
1519002379.66,30885,9.56,73222.5,-16.11,-45.95,-46.15,0,*6A
1519002380.9,30886,9.56,73220.8,-16.11,-45.73,-45.61,0,*61
1519002382.12,30887,9.56,73226.8,-16.11,-46.01,-46.21,0,*61
1519002383.37,30888,9.56,73222.5,-16.11,-45.73,-45.73,0,*6C
1519002384.59,30889,9.56,73222.3,-16.11,-45.95,-46.01,0,*63
1519002385.81,30890,9.56,73220.5,-16.11,-45.95,-46.01,0,*6B
1519002387.06,30891,9.56,73224.8,-16.11,-45.95,-46.15,0,*6F
1519002388.27,30892,9.56,73226.3,-16.11,-45.13,-45.13,0,*67
1519002389.49,30893,9.56,73226.0,-16.11,-45.21,-45.21,0,*66
1519002390.74,30894,9.56,73222.0,-16.09,-45.53,-45.53,0,*68
1519002392.01,30895,9.56,73226.0,-16.09,-45.95,-46.15,0,*62
1519002393.27,30896,9.56,73224.5,-16.09,-45.87,-46.07,0,*61
1519002394.52,30897,9.56,73224.0,-16.11,-45.81,-46.01,0,*69
1519002395.73,30898,9.56,73224.3,-16.11,-45.95,-45.95,0,*6D
1519002396.96,30899,9.56,73222.8,-16.11,-45.73,-45.95,0,*64
1519002398.21,30900,9.56,73222.3,-16.13,-46.01,-46.01,0,*6F
1519002399.44,30901,9.56,73222.5,-16.11,-45.73,-45.95,0,*64
1519002400.71,30902,9.56,73224.0,-16.11,-45.73,-45.81,0,*62
1519002401.97,30903,9.56,73220.8,-16.13,-45.81,-46.01,0,*67
1519002403.2,30904,9.56,73224.8,-16.11,-45.73,-45.95,0,*61
1519002404.43,30905,9.56,73220.8,-16.11,-45.95,-46.01,0,*66
1519002405.64,30906,9.56,73224.3,-16.11,-45.95,-46.21,0,*67
1519002406.91,30907,9.56,73220.5,-16.13,-46.15,-46.21,0,*6F
1519002408.19,30908,9.56,73222.8,-16.13,-46.15,-46.21,0,*60
1519002409.44,30909,9.56,73222.8,-16.11,-46.15,-46.01,0,*61
1519002410.67,30910,9.56,73222.8,-16.11,-45.81,-45.95,0,*69
1519002411.94,30911,9.56,73222.0,-16.13,-45.81,-46.01,0,*64
1519002413.21,30912,9.56,73220.3,-16.13,-46.01,-46.15,0,*69
1519002414.46,30913,9.56,73226.8,-16.11,-46.01,-46.15,0,*6A
1519002415.75,30914,9.56,73226.0,-16.13,-45.81,-45.81,0,*6A
1519002417.02,30915,9.56,73226.0,-16.13,-45.95,-46.15,0,*60
1519002418.29,30916,9.56,73224.8,-16.13,-46.01,-46.15,0,*6D
1519002419.53,30917,9.56,73224.3,-16.13,-46.21,-46.21,0,*69
1519002420.78,30918,9.56,73226.8,-16.13,-46.01,-46.01,0,*66
1519002422.07,30919,9.56,73226.5,-16.13,-45.81,-45.81,0,*67
1519002423.31,30920,9.56,73220.5,-16.13,-45.61,-45.61,0,*6D
1519002424.59,30921,9.56,73222.3,-16.13,-46.15,-46.21,0,*6B
1519002425.83,30922,9.56,73224.8,-16.13,-46.01,-46.21,0,*6D
1519002427.1,30923,9.56,73226.5,-16.13,-45.73,-46.01,0,*68
1519002428.38,30924,9.56,73222.8,-16.13,-45.81,-45.81,0,*69
1519002429.62,30925,9.56,73222.3,-16.13,-45.95,-45.95,0,*68
1519002430.85,30926,9.56,73222.3,-16.15,-46.01,-46.21,0,*6F
1519002432.07,30927,9.56,73220.3,-16.15,-46.01,-46.21,0,*6E
1519002433.29,30928,9.56,73220.5,-16.15,-46.01,-46.21,0,*61
1519002434.55,30929,9.56,73226.8,-16.17,-45.81,-45.61,0,*6E
1519002435.82,30930,9.56,73224.5,-16.13,-45.81,-46.01,0,*67
1519002437.11,30931,9.56,73220.0,-16.13,-45.73,-45.81,0,*60
1519002438.37,30932,9.56,73224.0,-16.13,-45.81,-45.95,0,*6B
1519002439.65,30933,9.56,73220.0,-16.13,-45.81,-45.73,0,*62
1519002440.93,30934,9.56,73224.3,-16.13,-45.73,-45.73,0,*68
1519002442.22,30935,9.56,73224.0,-16.13,-45.73,-45.81,0,*64
1519002443.44,30936,9.56,73224.3,-16.15,-45.87,-46.01,0,*61
1519002444.67,30937,9.56,73222.5,-16.15,-46.01,-46.01,0,*6D
1519002445.92,30938,9.56,73226.3,-16.15,-46.01,-46.07,0,*64
1519002447.14,30939,9.56,73222.8,-16.15,-45.87,-46.01,0,*6E
1519002448.4,30940,9.56,73222.8,-16.13,-45.81,-45.95,0,*6E
1519002449.68,30941,9.56,73222.8,-16.13,-45.73,-45.81,0,*67
1519002450.94,30942,9.56,73226.8,-16.11,-45.73,-45.81,0,*66
1519002452.18,30943,9.56,73222.0,-16.13,-45.95,-45.95,0,*68
1519002453.42,30944,9.56,73224.5,-16.15,-45.81,-45.87,0,*6F
1519002454.67,30945,9.56,73224.0,-16.15,-46.01,-46.07,0,*6E
1519002455.92,30946,9.56,73226.8,-16.15,-46.01,-46.27,0,*6F
1519002457.19,30947,9.56,73226.0,-16.15,-46.27,-46.27,0,*6A
1519002458.49,30948,9.56,73224.0,-16.13,-46.15,-46.15,0,*63
1519002459.77,30949,9.56,73222.3,-16.17,-46.21,-46.27,0,*60
1519002461.04,30950,9.56,73220.3,-16.17,-46.07,-46.21,0,*6A
1519002462.27,30951,9.56,73226.0,-16.15,-45.81,-45.87,0,*6B
1519002463.52,30952,9.56,73220.8,-16.15,-45.87,-46.07,0,*65
1519002464.79,30953,9.56,73220.0,-16.13,-45.81,-46.01,0,*62
1519002466.03,30954,9.56,73220.0,-16.17,-45.87,-46.01,0,*67
1519002467.28,30955,9.56,73222.3,-16.17,-45.87,-46.01,0,*66
1519002468.54,30956,9.56,73222.5,-16.17,-46.01,-46.01,0,*68
1519002469.76,30957,9.56,73220.5,-16.15,-46.01,-46.21,0,*69
1519002471.02,30958,9.56,73222.3,-16.17,-45.81,-45.87,0,*60
1519002472.24,30959,9.56,73222.0,-16.15,-45.87,-46.01,0,*68
1519002473.46,30960,9.56,73224.0,-16.15,-45.87,-46.01,0,*62
1519002474.73,30961,9.56,73222.5,-16.17,-45.81,-45.87,0,*6A
1519002476.0,30962,9.56,73222.0,-16.17,-46.01,-46.07,0,*69
1519002477.29,30963,9.56,73226.3,-16.17,-45.81,-45.81,0,*6E
1519002478.51,30964,9.56,73220.5,-16.15,-45.87,-46.01,0,*66
1519002479.81,30965,9.56,73222.3,-16.17,-45.81,-46.07,0,*65
1519002481.08,30966,9.56,73220.8,-16.17,-46.01,-46.07,0,*6D
1519002482.35,30967,9.56,73220.8,-16.17,-45.81,-45.87,0,*6C
1519002483.62,30968,9.56,73224.8,-16.17,-45.67,-45.81,0,*6D
1519002484.86,30969,9.56,73222.3,-16.15,-45.87,-46.07,0,*6D
1519002486.11,30970,9.56,73222.8,-16.15,-46.01,-46.07,0,*68
1519002487.35,30971,9.56,73222.8,-16.15,-45.81,-45.87,0,*69
1519002488.6,30972,9.56,73218.8,-16.17,-45.61,-45.61,0,*6E
1519002489.84,30973,9.56,73226.0,-16.17,-45.67,-45.87,0,*61
1519002491.11,30974,9.56,73222.8,-16.17,-46.01,-46.07,0,*6E
1519002492.39,30975,9.56,73224.0,-16.17,-46.07,-46.21,0,*6D
1519002493.66,30976,9.56,73222.8,-16.17,-46.01,-46.07,0,*6C
1519002494.91,30977,9.56,73224.0,-16.17,-45.67,-45.61,0,*6D
1519002496.15,30978,9.56,73224.5,-16.17,-45.87,-45.87,0,*64
1519002497.42,30979,9.56,73222.0,-16.17,-45.87,-46.07,0,*6E
1519002498.72,30980,9.56,73220.3,-16.17,-46.07,-46.07,0,*63
1519002499.99,30981,9.56,73224.5,-16.17,-46.21,-46.27,0,*64